Regional Weather Roundup
Issued by NWS

Home | Current Version | Previous Version | Text Only | Print | Product List | Glossary Off
Versions: 1 2 3 4 5 6 7 8 9 10 11 12 13 14 15 16 17 18 19 20 21 22 23 24 25 26 27 28 29 30 31 32 33 34 35 36 37 38 39 40 41 42 43 44 45 46 47 48 49 50

000
ASUS44 KMEG 210500
RWRTN
TENNESSEE HOURLY STATE WEATHER ROUNDUP
NATIONAL WEATHER SERVICE MEMPHIS TN
1200 AM CDT TUE OCT 21 2014

TNZ002-004-019-021-049-052-054-088>092-210600-
WEST TENNESSEE

CITY           SKY/WX    TMP DP  RH WIND       PRES   REMARKS
MEMPHIS INTL   CLEAR     58  52  80 CALM      30.03F
NWS MEMPHIS      N/A     54 N/A N/A MISG        N/A
JACKSON        PTCLDY    53  51  93 CALM      30.02F
DYERSBURG      CLEAR     59  45  58 W5        30.03S
UNION CITY     CLEAR     55  54  94 CALM      30.01S
PARIS          PTCLDY    55  52  88 N3        30.02S
LEXINGTON      CLEAR     48  48 100 CALM      30.01F
SAVANNAH       CLEAR     46  46 100 CALM      30.03F
$$

TNZ008-025-027-028-033-062-065-066-210600-
NORTH MIDDLE TENNESSEE

CITY           SKY/WX    TMP DP  RH WIND       PRES   REMARKS
NASHVILLE      CLEAR     53  49  86 CALM      30.01F
CLARKSVILLE    PTCLDY    57  52  83 W3        30.00S
COOKEVILLE     PTCLDY    45  45 100 CALM      30.01F
CROSSVILLE     CLEAR     50  46  86 W5        30.03F
$$

TNZ061-075-076-078-094-096-097-210600-
SOUTH MIDDLE TENNESSEE

CITY           SKY/WX    TMP DP  RH WIND       PRES   REMARKS
MCMINNVILLE    CLEAR     48  48 100 CALM      30.03S
SHELBYVILLE    CLEAR     48  48 100 CALM      30.03F
$$

TNZ017-018-042-046-047-210600-
NORTHEAST TENNESSEE

CITY           SKY/WX    TMP DP  RH WIND       PRES   REMARKS
TRI CITIES     PTCLDY    51  49  92 CALM      29.99F
ELIZABETHTON   CLOUDY    52  48  87 CALM      30.00F
$$

TNZ012-013-036-069-073-074-210600-
CENTRAL EAST TENNESSEE

CITY           SKY/WX    TMP DP  RH WIND       PRES   REMARKS
KNOXVILLE      PTCLDY    54  50  86 SW7       30.00F
OAK RIDGE      CLEAR     53  50  89 SW3       30.02F
GATLINBURG     CLOUDY    57  48  72 SW7       30.00F
MORRISTOWN     CLEAR     54  50  87 SW5       30.01S
$$

TNZ083-085-099-210600-
SOUTHEAST TENNESSEE

CITY           SKY/WX    TMP DP  RH WIND       PRES   REMARKS
CHATTANOOGA    CLEAR     53  51  93 CALM      30.03S
$$

SKY/WX REPORTED AS FAIR MEANS FEW OR NO CLOUDS BELOW
12 THOUSAND FEET.



USA.gov is the U.S. government's official web portal to all federal, state and local government web resources and services.